Location: Góry Miechowskie
(50.3599°N, 20.1803°E)
Time: 06:52:09
(UTC+00:00)

Vanguard 2 Rocket - All Passes

Search period start: 19 September 2024 00:00
Search period end: 29 September 2024 00:00
Orbit: 553 x 3300 km, 32.9° (Epoch: 18 September)

Date Brightness Start Highest point End Pass type
(mag) Time Alt. Az. Time Alt. Az. Time Alt. Az.
19 Sep - 00:46:13 10° SW 00:55:24 35° S 01:09:30 10° ESE visible
19 Sep - 02:58:10 10° WSW 03:09:30 34° SSW 03:25:12 10° SE visible
19 Sep - 05:13:14 10° WSW 05:23:57 21° SSW 05:36:26 10° S daylight
19 Sep - 21:36:51 10° SSE 21:40:17 13° SE 21:44:23 10° ESE visible
19 Sep - 23:44:07 10° SW 23:51:49 30° SSE 00:03:37 10° ESE visible
20 Sep - 01:55:08 10° WSW 02:05:14 35° S 02:20:10 10° SE visible
20 Sep - 04:08:37 10° WSW 04:19:36 25° SSW 04:33:30 10° SSE daylight
20 Sep - 22:42:31 10° SSW 22:48:39 23° SSE 22:57:36 10° ESE visible
21 Sep - 00:52:32 10° SW 01:01:17 34° S 01:14:44 10° ESE visible
21 Sep - 03:04:52 10° WSW 03:15:16 29° SSW 03:29:32 10° SSE visible
21 Sep - 05:21:39 10° WSW 05:29:26 15° SW 05:38:13 10° S daylight
21 Sep - 21:41:45 10° S 21:45:54 16° SE 21:51:16 10° ESE visible
21 Sep - 23:50:18 10° SW 23:57:41 30° SSE 00:09:06 10° ESE visible
22 Sep - 02:01:42 10° WSW 02:11:07 31° S 02:24:52 10° SE visible
22 Sep - 04:16:04 10° WSW 04:25:14 20° SSW 04:36:31 10° S daylight
22 Sep - 22:48:31 10° SSW 22:54:30 25° SSE 23:03:23 10° ESE visible
23 Sep - 00:59:00 10° WSW 01:07:13 31° S 01:19:45 10° SE visible
23 Sep - 03:11:54 10° WSW 03:21:04 23° SSW 03:33:16 10° SSE visible
23 Sep - 21:47:17 10° SSW 21:51:40 18° SSE 21:57:34 10° ESE visible
23 Sep - 23:56:40 10° SW 00:03:40 29° S 00:14:23 10° ESE visible
24 Sep - 02:08:30 10° WSW 02:17:01 26° SSW 02:29:07 10° SSE visible
24 Sep - 04:24:51 10° WSW 04:30:55 14° SSW 04:37:53 10° S daylight
24 Sep - 20:47:58 10° SSE 20:49:07 10° SE 20:50:21 10° SE night (unlit)
24 Sep - 22:54:41 10° SW 23:00:26 25° SSE 23:08:58 10° ESE visible
25 Sep - 01:05:39 10° WSW 01:13:12 27° S 01:24:25 10° SE visible
25 Sep - 03:19:34 10° WSW 03:26:53 17° SSW 03:36:05 10° S visible
25 Sep - 21:53:10 10° SSW 21:57:33 19° SSE 22:03:32 10° ESE night (unlit)
26 Sep - 00:03:11 10° SW 00:09:41 26° S 00:19:25 10° SE visible
26 Sep - 02:15:42 10° WSW 02:22:57 20° SSW 02:32:45 10° SSE visible
26 Sep - 20:52:35 10° S 20:54:56 12° SSE 20:57:40 10° SE night (unlit)
26 Sep - 23:01:04 10° SW 23:06:27 23° S 23:14:20 10° SE visible
27 Sep - 01:12:34 10° WSW 01:19:14 22° SSW 01:28:38 10° SSE visible
27 Sep - 03:29:19 10° SW 03:32:44 11° SSW 03:36:29 10° SSW visible
27 Sep - 21:59:20 10° SSW 22:03:32 19° SSE 22:09:16 10° SE night (unlit)
28 Sep - 00:09:55 10° SW 00:15:45 22° S 00:24:07 10° SE visible
28 Sep - 02:23:46 10° SW 02:28:56 14° SSW 02:35:14 10° S visible
28 Sep - 20:58:12 10° S 21:00:50 13° SSE 21:04:01 10° SE night (unlit)
28 Sep - 23:07:39 10° SW 23:12:32 21° S 23:19:26 10° SE visible
